Погода в Суре

Ливан     33°16′04″N   35°13′16″E
темп.,
°C
ветер,
м/с
пор.,
м/с
влажн.,
%
обл.,
%
осадки,
мм/ч
давл.,
гПа
погр.,
м
23 января, сб
сб2323:00+9вюв33432 0.0 102486
02:00+9в453818 0.0 1022150
05:00+9в573694 0.0 1023167
08:00+11вюв71336100 0.0 1023364
11:00+15вюв10133690 0.0 1023662
14:00+16св353944 0.0 1019802
17:00+12ссв33660 0.0 1020279
20:00+11в23480 0.0 1020192
24 января, вс
вс2423:00+11в34380 0.0 1021104
02:00+12вюв59320 0.0 1020209
05:00+11вюв710320 0.0 1020191
08:00+12ююв22440 0.0 1021133
11:00+15ююв02320 0.0 1021476
14:00+16зсз3240100 0.0 1019494
17:00+12ссз12560 0.0 1020280
20:00+11всв22540 0.0 1021285
25 января, пн
пн2523:00+11вюв225362 0.0 1021111
02:00+10св11450 0.0 1020120
05:00+10в12490 0.0 1020111
08:00+13вюв11510 0.0 102196
11:00+16з224038 0.0 1021400
14:00+15сз335424 0.0 1019630
17:00+13с236333 0.0 1020340
20:00+11св227317 0.0 1021301
26 января, вт
вт2623:00+11всв22740 0.0 1022221
02:00+10всв227217 0.0 1021166
05:00+10в117059 0.0 1021104
08:00+13вюв1256100 0.0 102195
11:00+15сз1142100 0.0 1020307
14:00+15с2247100 0.0 1018412
17:00+13ссв236293 0.0 1017198
20:00+12всв236795 0.0 1017147
27 января, ср
ср2723:00+11всв015428 0.0 101693
02:00+11ююз114815 0.0 101576
05:00+12ююз115099 0.0 1013101
08:00+14ю2358100 0.0 1010122
11:00+17юз45440 0.0 1013638
14:00+17юз67578 0.0 1012665
17:00+15ююз56690 0.0 1010244
20:00+14юз11147661 4.3 1010862